2021-022AC

Last updated on Thu Apr 22 2021 00:02:03 GMT+0000 (Coordinated Universal Time)

1 47958U 21022AC 21111.44393461 .00000215 00000-0 19132-4 0 9998 2 47958 97.5593 14.7266 0022331 142.8418 332.7512 15.05537006 3286
UTC large
Height (km)
Speed (km/s)
/
Latitude / Longitude
Inclination (degrees)
Orbital Period (minutes)
Azimuth
Elevation
Range (km)
Doppler Factor

Next 0 passes for location: London (51.5072 / 0.1276)

Sorry there are no passes over London.